星链-2469 (STARLINK-2469 )

导读 | 星芒AI

STARLINK-2469 是 SpaceX Starlink 卫星互联网项目中的第 2469 颗卫星,属于低轨卫星群,旨在为全球用户提供高速互联网服务。该卫星于近期由猎鹰 9 号火箭发射入轨,运行在约 550 公里的轨道高度,具备先进通信技术,支持宽带数据传输。Starlink 项目通过部署大量卫星,构建全球覆盖的通信网络,特别服务于偏远地区。STARLINK-2469 的加入进一步增强了网络的稳定性和覆盖范围。

基本信息
目录编号:
48128
目录名称:
STARLINK-2469
国际标识:
2021-027AN
轨道中心:
EARTH
卫星名称:
星链-2469
卫星全名:
星链-2469 (STARLINK-2469 )
卫星状态:
在轨 (已飞行1716 天)
发射日期:
2021-04-07 UTC
国别 :
美国 (US)
星等 :
--
轨道信息
数据来源 国际轨道数据
星历时间: 2025-12-17T22:01:44+0800
12小时前
查看轨道信息
半长轴: 6925.361km
偏心率: 0.0001162
轨道倾角: 53.056°
近地点辐角 100.793°
升交点赤经 110.288°
平近点角 259.319°
近地点: 546.421km
远地点: 548.031km
周期: 95.592分钟
每日圈数: 15.063961
详细信息
固有亮度:
5
最大亮度:
2.5
卫星平台:
Starlink V1.0
覆盖范围:
全球
运营商:
太空探索技术公司
运营商所在国:
美国
制造商(研发单位):
太空探索技术公司
制造商所在国:
美国
使用方式:
暂无
卫星简介
星链(Starlink)计划是由太空探索技术公司(SpaceX)提出的一个巨型低轨卫星互联网星座项目,计划在2019年至2024年间在太空搭建由约1.2万颗卫星组成的“星链”网络,其中1584颗将部署在地球上空550千米处的近地轨道,并从2020年开始工作。该卫星仍在工作。
2D轨道图
3D轨道图
轨道高度分析图
轨道倾角分析图
轨道综合分析图
查看轨道综合分析图